Terminal Aerodrome Forecast
Issued by NWS San Angelo, TX

Home | Current Version | Previous Version | Text Only | Print | Product List | Glossary On
Versions: 1 2 3 4 5 6 7 8 9 10 11 12 13 14 15 16 17 18 19 20 21 22 23
000
FTUS44 KSJT 271100
TAFSJT
TAF
KSJT 271121Z 2712/2812 25005KT P6SM SCT250
     FM272000 26013G20KT P6SM SCT250
     FM280300 34014G23KT P6SM BKN080
     FM280600 35015KT P6SM BKN020=

USA.gov is the U.S. government's official web portal to all federal, state and local government web resources and services.